Flag Weather past 2 weeks in Hannover, Lower Saxony, Germany

Now
52 °F

Clear.


Feels Like: 50 °F
Forecast: 50 / 64 °F
Wind: 6 mph from South

Location: Hannover

Current Time: Oct 31, 2014 at 6:54:50 AM

Latest Report: Oct 31, 2014 at 6:20 AM


Visibility: 4 mi

Pressure: 30.21 "Hg

Humidity: 100%

Dew point: 52 °F

Location of HannoverLocation

Historic Weather in Hannover — Graph

°F

Hannover temperature yesterday

Maximum temperature yesterday: 52 °F (at 11:50 AM)
Minimum temperature yesterday: 48 °F (at 12:20 AM)
Average temperature yesterday: 50 °F

Past Weeks' High & Low Weather Summary

 TemperatureHumidityPressure
High73 °F (Oct 19, 4:20 PM)100% (Oct 16, 9:20 AM)30.27 "Hg (Oct 16, 9:20 AM)
Low32 °F (Oct 29, 4:20 AM)63% (Oct 24, 3:20 PM)29.42 "Hg (Oct 21, 6:20 PM)
Average53 °F87%30.02 "Hg
* Reported Oct 16 6:20 AM — Oct 31 5:50 AM, Hannover, Weather by CustomWeather, © 2014

Note: Actual official high and low records may vary slightly from our data, if they occured in-between our weather recording intervals... More about our weather records

Advertising

Hannover weather history for previous 24 hours

 ConditionsComfort  
Time TempWeatherWind HumidityBarometerVisibility
5:50 AM
Oct 31
52 °FClear.6 mph94%30.21 "Hg4 mi
5:20 AM52 °FClear.6 mph94%30.21 "Hg4 mi
4:50 AM52 °FClear.6 mph94%30.21 "Hg4 mi
4:20 AM52 °FClear.5 mph94%30.21 "Hg4 mi
3:50 AM52 °FClear.5 mph94%30.21 "Hg4 mi
3:20 AM52 °FClear.6 mph100%30.21 "Hg4 mi
2:50 AM52 °FClear.5 mph94%30.21 "Hg4 mi
2:20 AM52 °FClear.5 mph94%30.21 "Hg4 mi
1:50 AM52 °FClear.6 mph94%30.21 "Hg4 mi
1:20 AM54 °FPassing clouds.6 mph94%30.21 "Hg4 mi
12:50 AM54 °FPassing clouds.6 mph94%30.21 "Hg4 mi
12:20 AM54 °FFog.5 mph94%30.21 "Hg3 mi
11:50 PM
Oct 30
52 °FFog.5 mph100%30.21 "Hg3 mi
11:20 PM52 °FFog.7 mph100%30.21 "Hg3 mi
10:50 PM52 °FPassing clouds.5 mph94%30.24 "Hg4 mi
10:20 PM52 °FPartly cloudy.3 mph94%30.24 "Hg4 mi
9:50 PM52 °FPassing clouds.5 mph100%30.24 "Hg4 mi
9:20 PM52 °FPassing clouds.5 mph100%30.24 "Hg4 mi
8:50 PM52 °FFog.5 mph94%30.24 "Hg4 mi
8:20 PM52 °FFog.6 mph94%30.24 "Hg4 mi
7:50 PM52 °FPassing clouds.6 mph94%30.24 "Hg5 mi
7:20 PM52 °FLow clouds.5 mph94%30.24 "Hg5 mi
6:50 PM52 °FMostly cloudy.5 mph94%30.24 "Hg5 mi
6:20 PM52 °FMostly cloudy.5 mph94%30.24 "Hg5 mi
5:50 PM52 °FMostly cloudy.5 mph94%30.24 "Hg5 mi
5:20 PM52 °FMostly cloudy.3 mph94%30.24 "Hg5 mi
4:50 PM52 °FMostly cloudy.5 mph94%30.24 "Hg5 mi
4:20 PM52 °FMostly cloudy.6 mph94%30.24 "Hg5 mi
3:50 PM52 °FMostly cloudy.5 mph94%30.24 "HgN/A
3:20 PM52 °FMostly cloudy.5 mph94%30.24 "HgN/A
2:50 PM52 °FMostly cloudy.5 mph94%30.24 "HgN/A
2:20 PM52 °FMostly cloudy.5 mph94%30.24 "HgN/A
1:50 PM52 °FMostly cloudy.6 mph94%30.24 "HgN/A
1:20 PM52 °FMostly cloudy.5 mph94%30.24 "HgN/A
12:50 PM52 °FMostly cloudy.5 mph94%30.24 "Hg5 mi
12:20 PM52 °FMostly cloudy.3 mph94%30.24 "Hg5 mi
11:50 AM52 °FLow clouds.5 mph94%30.24 "Hg5 mi
11:20 AM50 °FLow clouds.7 mph94%30.24 "HgN/A
10:50 AM50 °FPartly sunny.5 mph94%30.24 "HgN/A
10:20 AM50 °FPartly sunny.2 mph94%30.24 "HgN/A
9:50 AM50 °FMostly cloudy.5 mph100%30.24 "HgN/A
9:20 AM48 °FMostly cloudy.5 mph100%30.24 "Hg6 mi
8:50 AM48 °FMostly cloudy.3 mph100%30.21 "Hg4 mi
8:20 AM48 °FMostly cloudy.3 mph100%30.21 "Hg4 mi
7:50 AM48 °FMostly cloudy.3 mph100%30.21 "Hg4 mi
7:20 AM48 °FMostly cloudy.2 mph94%30.21 "Hg4 mi
6:50 AM48 °FMostly cloudy.2 mph94%30.21 "Hg4 mi
6:20 AM48 °FMostly cloudy.1 mph94%30.21 "Hg4 mi
Weather by CustomWeather, © 2014

See weather overviewHow to use our weather pages